Flag for Canada Weather past 2 weeks in Rainy River, Ontario, Canada

Now
69 °F

Overcast.


Feels Like: 69 °F
Forecast: 60 / 77 °F
Wind: 5 mph from Southwest

Location: Baudette International Airport

Current Time: Jul 24, 2014 at 8:47:07 PM

Latest Report: Jul 24, 2014 at 7:53 PM


Visibility: 10 mi

Pressure: 29.94 "Hg

Humidity: 76%

Dew point: 61 °F

Location of Rainy RiverLocation

Historic Weather in Rainy River — Graph

°F

Rainy River temperature yesterday

Maximum temperature yesterday: 73 °F (at 2:53 PM)
Minimum temperature yesterday: 55 °F (at 5:53 AM)
Average temperature yesterday: 65 °F

Past Weeks' High & Low Weather Summary

 TemperatureHumidityPressure
High90 °F (Jul 21, 2:53 PM)97% (Jul 17, 4:53 AM)30.32 "Hg (Jul 17, 4:53 AM)
Low49 °F (Jul 13, 1:53 AM)35% (Jul 11, 4:53 PM)29.61 "Hg (Jul 20, 12:53 PM)
Average66 °F72%29.94 "Hg
* Reported Jul 9 6:53 PM — Jul 24 6:53 PM, Rainy River, Weather by CustomWeather, © 2014

Note: Actual official high and low records may vary slightly from our data, if they occured in-between our weather recording intervals... More about our weather records

Advertising

Rainy River weather history for previous 24 hours

 ConditionsComfort  
Time TempWeatherWind HumidityBarometerVisibility
6:53 PM
Jul 24
70 °FPartly sunny.3 mph68%29.94 "Hg10 mi
5:53 PM72 °FOvercast.5 mph68%29.95 "Hg10 mi
4:53 PM74 °FScattered clouds.7 mph62%29.95 "Hg10 mi
3:53 PM73 °FSunny.3 mph59%29.93 "Hg10 mi
2:53 PM76 °FPassing clouds.8 mph56%29.95 "Hg10 mi
1:53 PM74 °FPassing clouds.5 mph57%30.01 "Hg10 mi
12:53 PM75 °FPassing clouds.7 mph52%30.06 "Hg10 mi
11:53 AM73 °FPassing clouds.12 mph59%30.08 "Hg10 mi
10:53 AM71 °FPassing clouds.8 mph61%30.10 "Hg10 mi
9:53 AM67 °FSunny.6 mph71%30.11 "Hg10 mi
8:53 AM65 °FSunny.6 mph73%30.12 "Hg10 mi
7:53 AM58 °FSunny.5 mph81%30.14 "Hg10 mi
6:53 AM55 °FSunny.3 mph90%30.15 "Hg10 mi
5:53 AM53 °FPassing clouds.3 mph93%30.16 "Hg10 mi
4:53 AM53 °FPassing clouds.No wind96%30.17 "Hg10 mi
3:53 AM56 °FClear.No wind87%30.17 "Hg10 mi
2:53 AM56 °FPassing clouds.3 mph90%30.19 "Hg10 mi
1:53 AM57 °FPassing clouds.No wind87%30.18 "Hg10 mi
12:53 AM56 °FPassing clouds.No wind90%30.20 "Hg10 mi
11:53 PM
Jul 23
57 °FPassing clouds.No wind93%30.20 "Hg10 mi
10:53 PM58 °FPassing clouds.No wind87%30.21 "Hg10 mi
9:53 PM61 °FSunny.No wind78%30.22 "Hg10 mi
8:53 PM63 °FSunny.No wind70%30.21 "Hg10 mi
Weather by CustomWeather, © 2014

See weather overviewHow to use our weather pages